Flag for Canada Weather past 2 weeks in Whistler, British Columbia, Canada

Now
45 °F

Quite cool.


Feels Like: 42 °F
Forecast: 39 / 47 °F
Wind: 5 mph from North

Location: Squamish Airport

Current Time: Oct 25, 2014 at 8:44:14 AM

Latest Report: Oct 25, 2014 at 8:00 AM


Visibility: N/A

Pressure: 29.54 "Hg

Humidity: 95%

Dew point: 43 °F

Location of WhistlerLocation

Historic Weather in Whistler — Graph

°F

Whistler temperature yesterday

Maximum temperature yesterday: 53 °F (at 3:00 PM)
Minimum temperature yesterday: 44 °F (at 3:00 AM)
Average temperature yesterday: 47 °F

Past Weeks' High & Low Weather Summary

 TemperatureHumidityPressure
High63 °F (Oct 20, 2:00 PM)100% (Oct 10, 8:00 PM)30.19 "Hg (Oct 10, 8:00 PM)
Low44 °F (Oct 25, 5:00 AM)65% (Oct 20, 4:00 PM)29.45 "Hg (Oct 22, 9:00 PM)
Average52 °F94%29.80 "Hg
* Reported Oct 10 7:00 AM — Oct 25 7:00 AM, Whistler, Weather by CustomWeather, © 2014

Note: Actual official high and low records may vary slightly from our data, if they occured in-between our weather recording intervals... More about our weather records

Advertising

Whistler weather history for previous 24 hours

 ConditionsComfort  
Time TempWeatherWind HumidityBarometerVisibility
7:00 AM
Oct 25
45 °FQuite cool.6 mph90%29.58 "HgN/A
6:00 AM45 °FQuite cool.5 mph97%29.61 "HgN/A
5:00 AM44 °FQuite cool.6 mph100%29.65 "HgN/A
4:00 AM46 °FCool.2 mph86%29.69 "HgN/A
3:00 AM46 °FCool.1 mph90%29.72 "HgN/A
2:00 AM46 °FCool.3 mph89%29.76 "HgN/A
1:00 AM47 °FCool.3 mph84%29.80 "HgN/A
12:00 AM47 °FCool.3 mph87%29.84 "HgN/A
11:00 PM
Oct 24
47 °FCool.2 mph82%29.89 "HgN/A
10:00 PM47 °FCool.5 mph87%29.90 "HgN/A
9:00 PM47 °FCool.5 mph90%29.92 "HgN/A
8:00 PM47 °FCool.3 mph94%29.94 "HgN/A
7:00 PM48 °FCool.3 mph90%29.95 "HgN/A
6:00 PM49 °FCool.3 mph88%29.95 "HgN/A
5:00 PM49 °FCool.5 mph89%29.98 "HgN/A
4:00 PM52 °FCool.5 mph82%29.99 "HgN/A
3:00 PM53 °FCool.3 mph81%30.01 "HgN/A
2:00 PM52 °FCool.2 mph83%30.04 "HgN/A
1:00 PM51 °FCool.3 mph88%30.05 "HgN/A
12:00 PM50 °FCool.2 mph85%30.07 "HgN/A
11:00 AM48 °FCool.1 mph96%30.08 "HgN/A
10:00 AM47 °FCool.2 mph98%30.07 "HgN/A
9:00 AM45 °FCool.2 mph99%30.07 "HgN/A
8:00 AM44 °FQuite cool.1 mph99%30.06 "HgN/A
Weather by CustomWeather, © 2014

See weather overviewHow to use our weather pages